TimeAST,TemperatureF,Dew PointF,Humidity,Sea Level PressureIn,VisibilityMPH,Wind Direction,Wind SpeedMPH,Gust SpeedMPH,PrecipitationIn,Events,Conditions,WindDirDegrees,DateUTC
12:00 AM,82.4,75.2,79,29.98,6.2,ESE,8.1,-,N/A,,Partly Cloudy,110,2012-10-08 04:00:00
1:00 AM,82.4,75.2,79,29.95,6.2,ESE,9.2,-,N/A,,Partly Cloudy,120,2012-10-08 05:00:00
2:00 AM,82,75,73,29.97,25,SE,6.9,,,,Scattered Clouds,130,2012-10-08 06:00:00
2:00 AM,82.4,75.2,79,29.95,6.2,SE,6.9,-,N/A,,Partly Cloudy,130,2012-10-08 06:00:00
3:00 AM,82.4,75.2,79,29.95,6.2,ESE,5.8,-,N/A,,Partly Cloudy,110,2012-10-08 07:00:00
4:00 AM,82.4,75.2,79,29.92,6.2,East,4.6,-,N/A,,Partly Cloudy,90,2012-10-08 08:00:00
5:00 AM,82,76,76,29.96,25,ESE,5.8,,,,Scattered Clouds,120,2012-10-08 09:00:00
5:00 AM,82.4,75.2,79,29.95,6.2,ESE,5.8,-,N/A,,Partly Cloudy,110,2012-10-08 09:00:00
6:00 AM,82.4,75.2,79,29.98,6.2,ESE,5.8,-,N/A,,Partly Cloudy,110,2012-10-08 10:00:00
7:00 AM,84.2,75.2,74,29.98,6.2,ESE,6.9,-,N/A,,Partly Cloudy,110,2012-10-08 11:00:00
8:00 AM,85,75,65,30.01,44,ESE,9.2,,,,Scattered Clouds,110,2012-10-08 12:00:00
8:00 AM,84.2,75.2,74,30.01,6.2,ESE,6.9,-,N/A,,Partly Cloudy,110,2012-10-08 12:00:00
9:00 AM,86.0,75.2,70,30.01,6.2,ESE,5.8,-,N/A,,Partly Cloudy,120,2012-10-08 13:00:00
10:00 AM,86.0,75.2,70,30.01,6.2,SE,6.9,-,N/A,,Partly Cloudy,130,2012-10-08 14:00:00
11:00 AM,87,75,61,30.01,44,SE,8.1,,,,Partly Cloudy,140,2012-10-08 15:00:00
11:00 AM,87.8,75.2,66,30.01,6.2,SE,8.1,-,N/A,,Scattered Clouds,140,2012-10-08 15:00:00
12:00 PM,87.8,75.2,66,29.98,6.2,SE,8.1,-,N/A,,Scattered Clouds,140,2012-10-08 16:00:00
1:00 PM,87.8,73.4,62,29.98,6.2,SE,9.2,-,N/A,,Scattered Clouds,130,2012-10-08 17:00:00
2:00 PM,89,74,52,29.97,37,SE,8.1,,,,,140,2012-10-08 18:00:00
2:00 PM,89.6,73.4,59,29.95,6.2,ESE,6.9,-,N/A,,Partly Cloudy,120,2012-10-08 18:00:00
3:00 PM,87.8,73.4,62,29.95,6.2,East,8.1,-,N/A,,Scattered Clouds,100,2012-10-08 19:00:00
4:00 PM,86.0,73.4,66,29.95,6.2,East,9.2,-,N/A,,Scattered Clouds,80,2012-10-08 20:00:00
5:00 PM,85,75,65,29.98,25,East,10.4,,,Rain,Light Rain Showers,90,2012-10-08 21:00:00
5:00 PM,84.2,75.2,74,29.98,6.2,East,10.4,-,N/A,,Scattered Clouds,80,2012-10-08 21:00:00
6:00 PM,84.2,75.2,74,29.98,6.2,East,6.9,-,N/A,,Scattered Clouds,90,2012-10-08 22:00:00
7:00 PM,84.2,75.2,74,29.98,6.2,East,4.6,-,N/A,,Scattered Clouds,100,2012-10-08 23:00:00
8:00 PM,81,75,77,30.02,1,East,12.7,,,Rain,Heavy Rain Showers,80,2012-10-09 00:00:00
8:00 PM,80.6,75.2,84,30.01,1.2,ENE,12.7,-,N/A,Rain,Heavy Rain Showers,60,2012-10-09 00:00:00
9:00 PM,80.6,75.2,84,30.04,6.2,ESE,12.7,-,N/A,,Scattered Clouds,110,2012-10-09 01:00:00
10:00 PM,80.6,73.4,79,30.01,6.2,ESE,4.6,-,N/A,,Partly Cloudy,110,2012-10-09 02:00:00
11:00 PM,82,74,72,30.04,19,East,4.6,,,,Scattered Clouds,100,2012-10-09 03:00:00
11:00 PM,82.4,75.2,79,30.04,6.2,East,4.6,-,N/A,,Partly Cloudy,100,2012-10-09 03:00:00